Total_Precipitation_Accumulation
0.33 0.54 0.16 0.09 0.02 0.01 0.05 0.06 0.05 0.04 0.02 0.01 0.01 0.01 0.03 0.01 0.00 0.00 0.00 0.00 0.01 0.00 0.01 0.00 0.00 0.00 0.00 0.00 0.00 0.00 0.00 0.00 0.00 0.00 0.00 0.00 0.00 0.00 0.00 0.00 0.00 0.00 0.00 0.00 0.00 0.00 0.00 0.00 0.00 0.00 0.00 0.00 0.01 0.02 0.03 0.01 0.02 0.03 0.03 0.03 0.02 0.02 0.03 0.04 0.07 0.02 0.00 0.00 0.00 0.01 0.01 0.02 0.04 0.02 0.01 0.00 0.00 0.01 0.00 0.00 0.00 0.00 0.02 0.01 0.01
0.14 0.06 0.18 0.14 0.06 0.07 0.04 0.03 0.03 0.01 0.01 0.06 0.09 0.03 0.04 0.02 0.02 0.01 0.01 0.01 0.00 0.01 0.00 0.00 0.00 0.00 0.00 0.00 0.00 0.00 0.00 0.00 0.00 0.00 0.00 0.00 0.00 0.00 0.00 0.00 0.00 0.00 0.00 0.00 0.00 0.00 0.00 0.00 0.00 0.00 0.00 0.00 0.00 0.01 0.04 0.10 0.03 0.02 0.03 0.04 0.04 0.03 0.05 0.11 0.04 0.05 0.02 0.00 0.01 0.00 0.03 0.04 0.07 0.08 0.04 0.03 0.00 0.01 0.00 0.00 0.00 0.13 0.01 0.00 0.01
0.06 0.02 0.03 0.06 0.02 0.03 0.03 0.04 0.01 0.01 0.02 0.01 0.04 0.04 0.14 0.08 0.02 0.01 0.05 0.02 0.01 0.00 0.00 0.01 0.01 0.00 0.00 0.00 0.00 0.00 0.00 0.00 0.00 0.00 0.00 0.00 0.00 0.00 0.00 0.00 0.00 0.00 0.00 0.00 0.00 0.00 0.00 0.00 0.00 0.00 0.00 0.00 0.00 0.00 0.00 0.01 0.04 0.02 0.02 0.04 0.05 0.05 0.05 0.10 0.09 0.09 0.03 0.01 0.01 0.01 0.01 0.02 0.03 0.04 0.03 0.01 0.01 0.03 0.01 0.01 0.01 0.01 0.01 0.00 0.00
0.02 0.01 0.03 0.01 0.04 0.02 0.01 0.02 0.07 0.31 0.33 0.19 0.06 0.10 0.14 0.15 0.05 0.03 0.06 0.03 0.01 0.02 0.01 0.00 0.00 0.00 0.00 0.00 0.00 0.00 0.00 0.00 0.00 0.00 0.00 0.00 0.00 0.00 0.00 0.00 0.00 0.00 0.00 0.00 0.00 0.00 0.00 0.00 0.00 0.00 0.00 0.00 0.00 0.00 0.00 0.00 0.01 0.02 0.02 0.02 0.03 0.02 0.03 0.03 0.06 0.08 0.04 0.03 0.00 0.01 0.00 0.02 0.02 0.02 0.02 0.01 0.00 0.00 0.01 0.01 0.02 0.02 0.02 0.02 0.01
0.03 0.02 0.02 0.06 0.17 0.12 0.14 0.53 0.61 0.53 0.34 0.20 0.24 0.26 0.26 0.15 0.11 0.03 0.07 0.02 0.04 0.03 0.01 0.00 0.01 0.00 0.00 0.00 0.00 0.00 0.00 0.00 0.00 0.00 0.00 0.00 0.00 0.00 0.00 0.00 0.00 0.00 0.00 0.00 0.00 0.00 0.00 0.00 0.00 0.00 0.00 0.00 0.00 0.00 0.00 0.00 0.00 0.00 0.00 0.01 0.01 0.02 0.05 0.05 0.10 0.08 0.10 0.07 0.03 0.03 0.03 0.02 0.05 0.02 0.01 0.00 0.00 0.00 0.00 0.00 0.01 0.01 0.01 0.01 0.02
0.01 0.02 0.02 0.04 0.04 0.13 0.40 0.59 0.24 0.11 0.17 0.26 0.33 0.28 0.15 0.22 0.30 0.19 0.17 0.14 0.13 0.19 0.16 0.15 0.03 0.03 0.01 0.01 0.01 0.00 0.00 0.00 0.00 0.00 0.00 0.00 0.00 0.00 0.00 0.00 0.00 0.00 0.00 0.00 0.00 0.00 0.00 0.00 0.00 0.00 0.00 0.00 0.00 0.00 0.00 0.00 0.00 0.00 0.00 0.00 0.01 0.02 0.02 0.03 0.08 0.06 0.12 0.05 0.02 0.02 0.03 0.04 0.04 0.04 0.01 0.01 0.01 0.01 0.00 0.00 0.00 0.00 0.00 0.01 0.01
0.06 0.11 0.09 0.15 0.28 0.70 0.76 0.64 0.27 0.20 0.11 0.10 0.14 0.15 0.15 0.33 0.28 0.32 0.31 0.33 0.23 0.20 0.14 0.11 0.12 0.15 0.11 0.17 0.08 0.02 0.03 0.20 0.07 0.03 0.01 0.00 0.00 0.00 0.00 0.00 0.00 0.00 0.00 0.00 0.00 0.00 0.00 0.00 0.00 0.00 0.00 0.00 0.00 0.00 0.00 0.00 0.00 0.00 0.00 0.00 0.01 0.01 0.09 0.23 0.08 0.15 0.11 0.08 0.11 0.07 0.08 0.06 0.06 0.08 0.02 0.02 0.02 0.02 0.00 0.00 0.00 0.00 0.05 0.02 0.01
0.04 0.16 0.20 0.31 0.42 0.26 0.23 0.15 0.10 0.09 0.08 0.10 0.21 0.11 0.13 0.21 0.14 0.13 0.11 0.10 0.23 0.21 0.20 0.29 0.40 0.25 0.15 0.07 0.10 0.08 0.03 0.05 0.03 0.06 0.03 0.01 0.03 0.02 0.01 0.01 0.00 0.00 0.00 0.00 0.00 0.00 0.00 0.00 0.00 0.00 0.00 0.00 0.00 0.00 0.00 0.00 0.00 0.00 0.00 0.00 0.01 0.02 0.02 0.02 0.04 0.06 0.09 0.16 0.19 0.24 0.27 0.31 0.31 0.33 0.06 0.05 0.01 0.02 0.01 0.00 0.00 0.01 0.09 0.03 0.05
0.08 0.09 0.09 0.04 0.02 0.03 0.03 0.11 0.19 0.32 0.19 0.24 0.39 0.14 0.10 0.31 0.23 0.30 0.28 0.27 0.25 0.57 0.48 0.45 0.39 0.21 0.18 0.13 0.14 0.13 0.10 0.09 0.14 0.07 0.17 0.11 0.01 0.00 0.00 0.00 0.01 0.00 0.00 0.00 0.00 0.00 0.00 0.00 0.00 0.00 0.00 0.00 0.00 0.00 0.00 0.00 0.00 0.00 0.00 0.00 0.00 0.01 0.03 0.02 0.02 0.02 0.03 0.09 0.12 0.22 0.25 0.41 0.38 0.22 0.09 0.06 0.02 0.00 0.00 0.01 0.01 0.00 0.00 0.00 0.00
0.11 0.08 0.05 0.08 0.07 0.04 0.09 0.08 0.07 0.12 0.15 0.16 0.10 0.17 0.21 0.24 0.25 0.39 0.27 0.28 0.21 0.38 0.65 0.31 0.40 0.44 0.27 0.20 0.27 0.30 0.27 0.19 0.14 0.11 0.04 0.02 0.01 0.01 0.01 0.01 0.00 0.00 0.00 0.02 0.03 0.01 0.00 0.00 0.00 0.00 0.00 0.00 0.00 0.00 0.00 0.00 0.00 0.00 0.00 0.00 0.00 0.00 0.01 0.01 0.02 0.03 0.06 0.08 0.21 0.14 0.17 0.17 0.21 0.20 0.08 0.13 0.30 0.25 0.10 0.01 0.00 0.01 0.02 0.00 0.04
0.18 0.12 0.25 0.15 0.29 0.27 0.12 0.14 0.12 0.17 0.16 0.22 0.17 0.30 0.49 0.49 0.35 0.49 0.52 0.66 0.57 0.29 0.60 0.48 0.50 0.49 0.52 0.25 0.08 0.13 0.20 0.18 0.08 0.00 0.00 0.00 0.00 0.00 0.00 0.00 0.00 0.00 0.00 0.00 0.01 0.02 0.00 0.00 0.00 0.00 0.00 0.00 0.00 0.00 0.00 0.00 0.00 0.00 0.00 0.00 0.00 0.00 0.00 0.00 0.00 0.02 0.04 0.04 0.08 0.18 0.69 0.42 0.42 0.16 0.05 0.07 0.06 0.11 0.06 0.24 0.09 0.04 0.02 0.03 0.14
0.20 0.22 0.12 0.12 0.12 0.08 0.17 0.12 0.13 0.14 0.15 0.27 0.61 0.60 0.52 0.39 0.23 0.23 0.14 0.04 0.05 0.05 0.03 0.01 0.02 0.06 0.07 0.11 0.06 0.19 0.20 0.01 0.01 0.01 0.00 0.00 0.01 0.03 0.00 0.00 0.00 0.00 0.00 0.00 0.00 0.00 0.00 0.00 0.00 0.00 0.00 0.00 0.00 0.00 0.00 0.00 0.00 0.00 0.00 0.00 0.00 0.00 0.00 0.00 0.00 0.00 0.00 0.02 0.06 0.10 0.16 0.27 0.14 0.22 0.14 0.10 0.03 0.01 0.01 0.02 0.02 0.04 0.06 0.03 0.22
0.03 0.03 0.02 0.02 0.14 0.10 0.38 0.26 0.38 0.46 0.69 0.62 0.46 0.66 0.53 0.17 0.11 0.07 0.06 0.04 0.01 0.02 0.00 0.01 0.01 0.02 0.01 0.01 0.00 0.00 0.02 0.00 0.00 0.00 0.00 0.00 0.00 0.02 0.01 0.01 0.00 0.00 0.00 0.00 0.00 0.00 0.00 0.00 0.00 0.00 0.00 0.00 0.00 0.00 0.00 0.00 0.00 0.00 0.00 0.00 0.00 0.00 0.00 0.00 0.00 0.00 0.00 0.00 0.03 0.08 0.10 0.20 0.19 0.23 0.23 0.04 0.02 0.03 0.01 0.01 0.03 0.04 0.03 0.04 0.04
0.07 0.08 0.08 0.09 0.07 0.03 0.08 0.14 0.22 0.25 0.45 0.41 0.33 0.36 0.16 0.26 0.30 0.21 0.20 0.07 0.10 0.05 0.04 0.02 0.01 0.02 0.01 0.01 0.01 0.01 0.00 0.00 0.00 0.00 0.00 0.00 0.00 0.01 0.04 0.01 0.00 0.01 0.01 0.01 0.00 0.00 0.00 0.00 0.00 0.00 0.00 0.00 0.00 0.00 0.00 0.00 0.00 0.00 0.00 0.00 0.00 0.00 0.00 0.00 0.00 0.00 0.00 0.00 0.00 0.01 0.03 0.17 0.32 0.21 0.11 0.12 0.05 0.02 0.03 0.02 0.02 0.17 0.05 0.14 0.73
0.08 0.05 0.07 0.03 0.04 0.03 0.04 0.03 0.36 0.07 0.21 0.24 0.24 0.36 0.12 0.16 0.07 0.01 0.05 0.02 0.05 0.07 0.06 0.01 0.01 0.00 0.00 0.00 0.00 0.03 0.00 0.00 0.00 0.00 0.00 0.00 0.00 0.01 0.05 0.00 0.00 0.01 0.00 0.00 0.00 0.00 0.02 0.00 0.00 0.00 0.00 0.01 0.00 0.00 0.00 0.00 0.00 0.00 0.00 0.00 0.00 0.00 0.00 0.00 0.00 0.00 0.00 0.00 0.00 0.00 0.00 0.02 0.19 0.17 0.14 0.24 0.05 0.11 0.13 0.35 0.19 0.38 0.38 0.21 0.13
0.06 0.01 0.02 0.02 0.06 0.04 0.10 0.17 0.38 0.43 0.33 0.31 0.11 0.02 0.04 0.05 0.02 0.04 0.01 0.01 0.06 0.03 0.00 0.01 0.01 0.01 0.00 0.00 0.02 0.00 0.00 0.00 0.00 0.00 0.00 0.00 0.01 0.02 0.00 0.00 0.00 0.00 0.01 0.01 0.01 0.00 0.03 0.02 0.01 0.00 0.01 0.00 0.00 0.00 0.00 0.01 0.00 0.00 0.00 0.00 0.00 0.00 0.00 0.00 0.00 0.00 0.00 0.00 0.00 0.00 0.00 0.00 0.01 0.11 0.09 0.03 0.03 0.17 0.20 0.11 0.06 0.07 0.08 0.06 0.05
0.07 0.10 0.38 0.68 1.00 0.89 0.70 0.76 1.01 0.88 0.54 0.29 0.05 0.03 0.01 0.00 0.01 0.05 0.07 0.01 0.02 0.01 0.01 0.02 0.01 0.01 0.01 0.02 0.05 0.05 0.01 0.01 0.00 0.00 0.00 0.01 0.02 0.00 0.01 0.01 0.02 0.01 0.01 0.01 0.04 0.01 0.00 0.01 0.00 0.00 0.00 0.00 0.00 0.02 0.00 0.00 0.00 0.00 0.00 0.00 0.00 0.00 0.00 0.00 0.00 0.00 0.00 0.00 0.00 0.00 0.00 0.00 0.00 0.03 0.10 0.09 0.27 0.12 0.01 0.12 0.01 0.01 0.02 0.01 0.01
0.03 0.03 0.04 0.02 0.06 0.07 0.18 0.26 0.39 0.31 0.33 0.31 0.20 0.17 0.17 0.17 0.06 0.07 0.04 0.01 0.00 0.04 0.02 0.04 0.02 0.02 0.03 0.06 0.06 0.01 0.01 0.00 0.00 0.00 0.00 0.00 0.01 0.03 0.01 0.02 0.07 0.06 0.03 0.01 0.00 0.00 0.00 0.00 0.03 0.07 0.00 0.00 0.00 0.00 0.00 0.01 0.00 0.00 0.00 0.00 0.00 0.00 0.00 0.00 0.00 0.00 0.00 0.00 0.00 0.00 0.00 0.00 0.00 0.00 0.01 0.02 0.03 0.06 0.04 0.04 0.12 0.10 0.15 0.08 0.17
0.12 0.03 0.03 0.02 0.02 0.02 0.09 0.03 0.03 0.18 0.37 0.29 0.23 0.26 0.25 0.20 0.36 0.26 0.37 0.29 0.18 0.22 0.15 0.08 0.06 0.03 0.02 0.04 0.02 0.01 0.00 0.00 0.00 0.00 0.00 0.00 0.02 0.00 0.00 0.02 0.02 0.00 0.00 0.01 0.00 0.00 0.00 0.00 0.00 0.00 0.00 0.00 0.00 0.00 0.00 0.00 0.00 0.00 0.00 0.01 0.00 0.00 0.00 0.00 0.01 0.01 0.00 0.00 0.00 0.00 0.00 0.00 0.00 0.00 0.00 0.00 0.01 0.02 0.03 0.02 0.07 0.07 0.03 0.02 0.06
0.08 0.17 0.17 0.04 0.08 0.12 0.13 0.12 0.14 0.13 0.02 0.01 0.01 0.09 0.19 0.31 0.14 0.11 0.05 0.06 0.17 0.21 0.38 0.18 0.34 0.07 0.12 0.05 0.05 0.02 0.00 0.00 0.00 0.00 0.00 0.00 0.01 0.02 0.00 0.00 0.00 0.00 0.00 0.01 0.00 0.00 0.00 0.00 0.00 0.00 0.00 0.00 0.00 0.00 0.00 0.00 0.00 0.00 0.01 0.01 0.01 0.00 0.00 0.00 0.01 0.01 0.03 0.01 0.01 0.01 0.00 0.00 0.00 0.00 0.00 0.00 0.02 0.08 0.09 0.05 0.03 0.08 0.17 0.03 0.05
0.07 0.04 0.02 0.04 0.04 0.09 0.12 0.10 0.08 0.10 0.09 0.11 0.15 0.12 0.10 0.07 0.02 0.02 0.02 0.04 0.05 0.05 0.10 0.10 0.06 0.10 0.08 0.04 0.02 0.01 0.00 0.00 0.00 0.00 0.00 0.00 0.00 0.01 0.00 0.00 0.00 0.00 0.00 0.00 0.00 0.00 0.00 0.00 0.00 0.00 0.00 0.00 0.00 0.00 0.00 0.00 0.00 0.01 0.01 0.01 0.00 0.00 0.00 0.02 0.05 0.04 0.09 0.01 0.01 0.01 0.02 0.05 0.01 0.01 0.00 0.00 0.00 0.01 0.04 0.04 0.10 0.07 0.13 0.13 0.22
0.21 0.50 0.90 0.87 0.28 0.28 0.13 0.42 0.52 0.31 0.38 0.18 0.22 0.03 0.06 0.14 0.21 0.10 0.09 0.02 0.07 0.08 0.10 0.06 0.03 0.02 0.02 0.01 0.00 0.00 0.00 0.00 0.00 0.00 0.00 0.00 0.00 0.00 0.00 0.00 0.00 0.00 0.00 0.00 0.01 0.00 0.00 0.00 0.00 0.00 0.00 0.00 0.00 0.00 0.00 0.00 0.00 0.03 0.01 0.00 0.00 0.00 0.01 0.02 0.04 0.04 0.04 0.04 0.08 0.04 0.01 0.01 0.01 0.05 0.01 0.00 0.00 0.00 0.10 0.20 0.18 0.15 0.09 0.14 0.16
0.21 0.23 0.15 0.31 0.62 0.45 0.45 0.22 0.07 0.24 0.23 0.22 0.34 0.35 0.22 0.15 0.09 0.11 0.23 0.26 0.20 0.13 0.07 0.01 0.01 0.01 0.00 0.00 0.00 0.00 0.00 0.00 0.00 0.00 0.00 0.00 0.00 0.00 0.00 0.00 0.00 0.01 0.02 0.03 0.02 0.01 0.01 0.00 0.00 0.00 0.00 0.00 0.00 0.00 0.00 0.00 0.01 0.01 0.00 0.00 0.00 0.00 0.02 0.03 0.04 0.06 0.04 0.03 0.05 0.07 0.07 0.15 0.03 0.01 0.01 0.00 0.00 0.01 0.01 0.02 0.07 0.11 0.14 0.18 0.19
0.23 0.24 0.37 0.20 0.43 0.30 0.31 0.51 0.31 0.26 0.18 0.19 0.27 0.27 0.34 0.36 0.35 0.18 0.09 0.09 0.11 0.09 0.05 0.01 0.00 0.00 0.00 0.00 0.00 0.00 0.00 0.00 0.00 0.00 0.00 0.00 0.00 0.00 0.00 0.00 0.00 0.01 0.02 0.02 0.01 0.01 0.01 0.00 0.00 0.00 0.00 0.00 0.00 0.00 0.00 0.01 0.01 0.00 0.00 0.00 0.00 0.00 0.03 0.03 0.05 0.06 0.04 0.04 0.04 0.03 0.05 0.05 0.26 0.34 0.26 0.02 0.00 0.00 0.01 0.05 0.15 0.09 0.11 0.14 0.17
0.11 0.18 0.43 0.38 0.22 0.21 0.28 0.35 0.33 0.27 0.28 0.17 0.08 0.04 0.09 0.17 0.23 0.30 0.20 0.12 0.05 0.02 0.02 0.02 0.02 0.01 0.00 0.00 0.00 0.00 0.00 0.00 0.00 0.00 0.01 0.01 0.01 0.00 0.00 0.01 0.01 0.01 0.03 0.03 0.03 0.02 0.01 0.00 0.00 0.00 0.00 0.00 0.00 0.00 0.00 0.00 0.00 0.00 0.00 0.00 0.01 0.03 0.03 0.04 0.05 0.07 0.08 0.05 0.04 0.02 0.02 0.10 0.09 0.24 0.29 0.07 0.06 0.02 0.03 0.02 0.02 0.06 0.06 0.09 0.15
0.34 0.41 0.33 0.43 0.50 0.24 0.22 0.28 0.19 0.19 0.10 0.22 0.16 0.10 0.10 0.05 0.12 0.08 0.07 0.05 0.07 0.06 0.02 0.01 0.00 0.00 0.01 0.01 0.01 0.01 0.00 0.01 0.00 0.00 0.00 0.00 0.00 0.00 0.01 0.01 0.01 0.01 0.02 0.02 0.02 0.01 0.01 0.01 0.01 0.00 0.00 0.00 0.01 0.01 0.01 0.00 0.00 0.00 0.00 0.00 0.02 0.02 0.02 0.04 0.05 0.08 0.07 0.05 0.03 0.03 0.02 0.02 0.03 0.05 0.06 0.35 0.32 0.46 0.19 0.04 0.04 0.06 0.10 0.14 0.12
0.39 0.45 0.46 0.19 0.23 0.28 0.31 0.15 0.14 0.13 0.09 0.09 0.09 0.13 0.08 0.09 0.11 0.04 0.08 0.05 0.07 0.05 0.02 0.03 0.01 0.04 0.01 0.04 0.01 0.03 0.01 0.03 0.01 0.00 0.01 0.01 0.01 0.01 0.01 0.01 0.01 0.01 0.02 0.03 0.02 0.01 0.01 0.02 0.01 0.01 0.01 0.01 0.01 0.01 0.01 0.01 0.03 0.05 0.05 0.03 0.03 0.03 0.03 0.04 0.06 0.08 0.07 0.06 0.04 0.03 0.03 0.03 0.09 0.03 0.04 0.06 0.08 0.08 0.15 0.28 0.39 0.19 0.10 0.12 0.18
0.39 0.22 0.27 0.33 0.22 0.11 0.20 0.17 0.14 0.11 0.07 0.07 0.07 0.06 0.07 0.08 0.06 0.01 0.02 0.05 0.03 0.04 0.11 0.07 0.25 0.33 0.51 0.58 0.30 0.16 0.07 0.02 0.00 0.00 0.00 0.01 0.02 0.02 0.03 0.02 0.02 0.02 0.03 0.02 0.02 0.02 0.03 0.03 0.03 0.05 0.05 0.05 0.04 0.04 0.04 0.04 0.03 0.03 0.03 0.03 0.03 0.03 0.03 0.03 0.06 0.10 0.08 0.05 0.03 0.03 0.05 0.04 0.04 0.03 0.05 0.04 0.04 0.06 0.05 0.08 0.10 0.15 0.21 0.29 0.28
0.15 0.18 0.15 0.19 0.15 0.08 0.07 0.10 0.18 0.13 0.11 0.14 0.14 0.14 0.10 0.14 0.11 0.10 0.13 0.11 0.04 0.04 0.06 0.04 0.01 0.02 0.01 0.01 0.02 0.02 0.00 0.00 0.00 0.00 0.00 0.01 0.01 0.01 0.02 0.03 0.03 0.03 0.03 0.02 0.05 0.07 0.07 0.07 0.07 0.06 0.06 0.05 0.04 0.03 0.03 0.03 0.03 0.02 0.02 0.02 0.03 0.04 0.05 0.08 0.12 0.12 0.09 0.07 0.07 0.07 0.06 0.09 0.08 0.06 0.07 0.19 0.05 0.05 0.15 0.09 0.11 0.13 0.16 0.27 0.34
0.19 0.12 0.14 0.13 0.08 0.08 0.11 0.11 0.16 0.17 0.15 0.09 0.05 0.03 0.01 0.01 0.02 0.04 0.09 0.03 0.02 0.04 0.01 0.01 0.02 0.01 0.05 0.05 0.00 0.00 0.01 0.01 0.01 0.01 0.00 0.00 0.00 0.00 0.01 0.02 0.03 0.03 0.03 0.03 0.06 0.10 0.06 0.04 0.03 0.03 0.04 0.05 0.05 0.04 0.03 0.04 0.05 0.06 0.06 0.05 0.05 0.05 0.06 0.06 0.07 0.06 0.05 0.05 0.05 0.06 0.06 0.06 0.07 0.10 0.08 0.08 0.09 0.08 0.10 0.23 0.19 0.19 0.24 0.24 0.28
0.19 0.16 0.18 0.18 0.08 0.21 0.29 0.28 0.19 0.19 0.15 0.17 0.10 0.03 0.04 0.10 0.03 0.00 0.00 0.01 0.02 0.01 0.01 0.09 0.03 0.00 0.00 0.05 0.01 0.01 0.01 0.01 0.01 0.01 0.00 0.00 0.00 0.01 0.01 0.02 0.02 0.02 0.03 0.05 0.07 0.07 0.06 0.05 0.04 0.05 0.06 0.07 0.07 0.05 0.04 0.07 0.10 0.10 0.09 0.09 0.09 0.07 0.06 0.07 0.06 0.05 0.05 0.05 0.06 0.05 0.05 0.05 0.05 0.05 0.08 0.15 0.12 0.13 0.09 0.14 0.17 0.18 0.21 0.24 0.30
0.20 0.25 0.12 0.18 0.13 0.09 0.15 0.15 0.16 0.17 0.17 0.11 0.04 0.04 0.12 0.07 0.02 0.05 0.07 0.04 0.03 0.07 0.06 0.07 0.05 0.07 0.03 0.25 0.06 0.01 0.01 0.00 0.00 0.00 0.00 0.00 0.01 0.01 0.01 0.01 0.02 0.03 0.04 0.06 0.09 0.08 0.08 0.09 0.08 0.07 0.08 0.09 0.07 0.07 0.08 0.08 0.09 0.12 0.13 0.14 0.11 0.08 0.06 0.07 0.05 0.07 0.09 0.09 0.09 0.08 0.06 0.05 0.05 0.05 0.06 0.09 0.13 0.12 0.16 0.20 0.25 0.24 0.18 0.24 0.24
0.23 0.17 0.10 0.14 0.16 0.15 0.19 0.26 0.19 0.22 0.31 0.10 0.04 0.09 0.25 0.06 0.05 0.06 0.00 0.02 0.00 0.02 0.05 0.03 0.03 0.01 0.01 0.02 0.00 0.00 0.00 0.00 0.00 0.00 0.00 0.01 0.01 0.01 0.01 0.01 0.02 0.04 0.07 0.08 0.08 0.09 0.10 0.11 0.12 0.13 0.14 0.14 0.11 0.10 0.09 0.08 0.08 0.10 0.12 0.12 0.09 0.05 0.04 0.02 0.03 0.06 0.09 0.09 0.08 0.09 0.08 0.08 0.07 0.08 0.08 0.08 0.11 0.17 0.18 0.14 0.14 0.23 0.30 0.27 0.33
0.18 0.23 0.29 0.17 0.11 0.19 0.19 0.13 0.15 0.15 0.07 0.08 0.19 0.44 0.08 0.05 0.10 0.07 0.36 0.02 0.00 0.00 0.00 0.01 0.01 0.04 0.01 0.01 0.01 0.01 0.00 0.00 0.00 0.00 0.00 0.01 0.01 0.01 0.02 0.02 0.03 0.05 0.09 0.11 0.10 0.11 0.12 0.12 0.10 0.11 0.13 0.15 0.16 0.15 0.14 0.13 0.11 0.10 0.12 0.15 0.16 0.14 0.08 0.04 0.08 0.09 0.09 0.12 0.15 0.12 0.09 0.10 0.11 0.13 0.15 0.15 0.15 0.16 0.19 0.22 0.21 0.33 0.34 0.34 0.33
0.22 0.25 0.23 0.20 0.16 0.19 0.22 0.16 0.10 0.11 0.08 0.18 0.13 0.03 0.12 0.04 0.05 0.13 0.07 0.09 0.12 0.32 0.42 0.07 0.04 0.01 0.05 0.03 0.01 0.01 0.01 0.01 0.01 0.01 0.01 0.01 0.01 0.02 0.02 0.02 0.02 0.03 0.05 0.07 0.09 0.11 0.14 0.16 0.16 0.13 0.14 0.15 0.16 0.17 0.17 0.15 0.13 0.10 0.09 0.12 0.17 0.23 0.24 0.20 0.12 0.08 0.08 0.12 0.18 0.18 0.15 0.14 0.15 0.18 0.19 0.21 0.23 0.22 0.20 0.29 0.30 0.38 0.53 0.42 0.35
0.26 0.25 0.20 0.16 0.16 0.59 0.26 0.32 0.10 0.15 0.15 0.06 0.04 0.04 0.04 0.03 0.02 0.02 0.38 0.02 0.03 0.13 0.01 0.14 0.15 0.39 0.02 0.01 0.01 0.01 0.01 0.01 0.01 0.01 0.01 0.01 0.01 0.02 0.02 0.03 0.03 0.04 0.05 0.06 0.08 0.09 0.12 0.17 0.18 0.15 0.12 0.13 0.14 0.16 0.17 0.19 0.16 0.13 0.11 0.11 0.11 0.16 0.21 0.25 0.22 0.20 0.15 0.13 0.15 0.17 0.22 0.26 0.25 0.24 0.25 0.25 0.25 0.42 0.30 0.22 0.24 0.27 0.35 0.53 0.60
0.22 0.20 0.17 0.27 0.46 0.18 0.24 0.21 0.41 0.41 0.27 0.16 0.11 0.43 0.10 0.13 0.11 0.10 0.11 0.01 0.02 0.34 0.31 0.08 0.00 0.00 0.00 0.00 0.00 0.00 0.01 0.01 0.01 0.01 0.02 0.02 0.02 0.03 0.04 0.05 0.06 0.05 0.05 0.06 0.07 0.08 0.10 0.16 0.22 0.22 0.17 0.16 0.14 0.15 0.14 0.14 0.15 0.15 0.15 0.21 0.20 0.21 0.25 0.25 0.25 0.20 0.24 0.24 0.18 0.22 0.32 0.34 0.33 0.33 0.35 0.38 0.37 0.40 0.48 0.39 0.36 0.36 0.38 0.37 0.52
0.21 0.21 0.26 0.24 0.17 0.14 0.13 0.19 0.43 0.12 0.21 0.41 0.57 0.45 0.07 0.20 0.15 0.11 0.31 0.28 0.35 0.25 0.00 0.00 0.01 0.02 0.00 0.00 0.00 0.00 0.00 0.00 0.00 0.01 0.01 0.02 0.02 0.04 0.05 0.06 0.06 0.07 0.08 0.09 0.10 0.09 0.09 0.12 0.18 0.24 0.22 0.18 0.16 0.15 0.15 0.13 0.14 0.16 0.16 0.20 0.21 0.18 0.21 0.28 0.38 0.37 0.33 0.34 0.38 0.37 0.37 0.41 0.45 0.57 0.55 0.52 0.39 0.35 0.38 0.67 0.84 0.55 0.58 0.53 0.48
0.21 0.25 0.23 0.21 0.21 0.16 0.08 0.06 0.07 0.05 0.08 0.11 0.29 0.17 0.41 0.30 0.27 0.24 0.16 0.07 0.01 0.08 0.07 0.12 0.02 0.00 0.00 0.00 0.00 0.00 0.01 0.01 0.01 0.02 0.02 0.03 0.03 0.03 0.04 0.05 0.07 0.08 0.10 0.12 0.14 0.13 0.11 0.12 0.15 0.19 0.27 0.28 0.23 0.18 0.17 0.16 0.17 0.18 0.16 0.18 0.21 0.20 0.27 0.30 0.36 0.40 0.45 0.44 0.44 0.44 0.47 0.47 0.46 0.48 0.56 0.54 0.43 0.35 0.34 0.41 0.63 0.69 0.53 0.47 0.46
0.31 0.40 0.32 0.23 0.21 0.19 0.10 0.27 0.04 0.04 0.11 0.11 0.14 0.15 0.26 0.17 0.20 0.20 0.13 0.07 0.08 0.05 0.01 0.00 0.00 0.00 0.00 0.00 0.00 0.00 0.01 0.01 0.02 0.02 0.03 0.03 0.04 0.04 0.04 0.05 0.07 0.08 0.10 0.10 0.09 0.09 0.09 0.11 0.15 0.19 0.24 0.31 0.36 0.37 0.33 0.22 0.19 0.24 0.26 0.23 0.28 0.28 0.33 0.35 0.34 0.39 0.41 0.40 0.39 0.39 0.40 0.41 0.40 0.40 0.39 0.41 0.34 0.35 0.35 0.40 0.37 0.53 0.62 0.46 0.45
0.25 0.26 0.25 0.23 0.19 0.17 0.15 0.19 0.11 0.05 0.02 0.10 0.17 0.08 0.11 0.12 0.13 0.05 0.05 0.05 0.04 0.05 0.03 0.00 0.00 0.00 0.00 0.00 0.00 0.00 0.01 0.02 0.02 0.03 0.03 0.04 0.05 0.06 0.07 0.07 0.08 0.10 0.11 0.13 0.12 0.10 0.09 0.10 0.12 0.15 0.17 0.22 0.30 0.35 0.45 0.36 0.20 0.20 0.28 0.27 0.31 0.30 0.29 0.25 0.32 0.40 0.37 0.36 0.34 0.33 0.31 0.34 0.39 0.41 0.38 0.36 0.41 0.36 0.35 0.37 0.41 0.47 0.46 0.41 0.39
0.28 0.30 0.32 0.27 0.20 0.14 0.16 0.09 0.19 0.21 0.06 0.05 0.12 0.08 0.05 0.06 0.06 0.09 0.05 0.03 0.02 0.02 0.01 0.00 0.00 0.00 0.00 0.00 0.00 0.00 0.01 0.01 0.02 0.03 0.03 0.03 0.04 0.06 0.07 0.07 0.07 0.09 0.09 0.10 0.11 0.12 0.12 0.11 0.11 0.12 0.13 0.18 0.25 0.32 0.41 0.51 0.37 0.31 0.38 0.35 0.28 0.30 0.34 0.31 0.35 0.39 0.38 0.32 0.26 0.27 0.31 0.37 0.37 0.34 0.32 0.32 0.35 0.43 0.34 0.36 0.40 0.47 0.39 0.37 0.43
0.18 0.19 0.21 0.21 0.19 0.17 0.15 0.14 0.22 0.08 0.06 0.05 0.07 0.09 0.06 0.08 0.04 0.05 0.04 0.01 0.01 0.01 0.01 0.01 0.02 0.01 0.00 0.00 0.01 0.02 0.01 0.01 0.02 0.02 0.03 0.03 0.05 0.06 0.08 0.10 0.10 0.10 0.09 0.09 0.11 0.15 0.17 0.16 0.16 0.15 0.15 0.18 0.24 0.33 0.43 0.62 0.60 0.44 0.41 0.45 0.33 0.34 0.42 0.36 0.35 0.40 0.37 0.29 0.25 0.18 0.19 0.29 0.30 0.30 0.34 0.36 0.32 0.33 0.39 0.41 0.41 0.47 0.48 0.40 0.46
0.15 0.18 0.21 0.22 0.20 0.16 0.13 0.10 0.06 0.04 0.03 0.03 0.03 0.05 0.05 0.04 0.02 0.02 0.03 0.03 0.02 0.01 0.01 0.01 0.01 0.01 0.01 0.01 0.01 0.00 0.01 0.01 0.01 0.01 0.02 0.03 0.06 0.10 0.13 0.13 0.12 0.10 0.09 0.11 0.14 0.16 0.18 0.22 0.23 0.20 0.18 0.19 0.19 0.23 0.33 0.48 0.58 0.54 0.51 0.58 0.49 0.42 0.50 0.49 0.47 0.45 0.34 0.31 0.21 0.15 0.21 0.19 0.22 0.30 0.36 0.39 0.41 0.49 0.49 0.43 0.42 0.38 0.47 0.42 0.45
0.04 0.05 0.06 0.07 0.07 0.06 0.06 0.05 0.04 0.03 0.02 0.02 0.03 0.04 0.03 0.02 0.02 0.03 0.02 0.02 0.02 0.02 0.01 0.01 0.01 0.01 0.01 0.01 0.00 0.00 0.00 0.00 0.00 0.00 0.01 0.03 0.06 0.12 0.16 0.17 0.15 0.11 0.10 0.12 0.13 0.15 0.20 0.24 0.27 0.28 0.26 0.24 0.21 0.24 0.30 0.36 0.47 0.56 0.59 0.64 0.66 0.56 0.51 0.67 0.53 0.33 0.25 0.28 0.29 0.20 0.20 0.22 0.28 0.33 0.43 0.51 0.51 0.51 0.56 0.53 0.48 0.43 0.39 0.46 0.46
0.03 0.04 0.05 0.05 0.05 0.05 0.06 0.05 0.04 0.04 0.03 0.03 0.03 0.03 0.03 0.03 0.03 0.03 0.03 0.02 0.02 0.01 0.01 0.01 0.01 0.01 0.01 0.00 0.00 0.00 0.00 0.00 0.00 0.00 0.01 0.02 0.04 0.09 0.15 0.17 0.17 0.13 0.11 0.11 0.10 0.11 0.15 0.21 0.26 0.32 0.35 0.33 0.28 0.26 0.27 0.30 0.38 0.47 0.54 0.60 0.56 0.49 0.46 0.44 0.34 0.28 0.23 0.22 0.29 0.34 0.30 0.33 0.36 0.39 0.38 0.45 0.48 0.43 0.42 0.43 0.42 0.41 0.35 0.36 0.42
0.04 0.05 0.06 0.05 0.05 0.05 0.05 0.06 0.06 0.07 0.09 0.08 0.06 0.05 0.04 0.05 0.04 0.04 0.02 0.02 0.01 0.01 0.00 0.00 0.00 0.00 0.00 0.00 0.00 0.00 0.00 0.00 0.00 0.00 0.00 0.01 0.03 0.05 0.10 0.14 0.16 0.18 0.16 0.12 0.10 0.09 0.09 0.14 0.22 0.29 0.32 0.35 0.31 0.28 0.29 0.31 0.37 0.45 0.55 0.54 0.48 0.47 0.46 0.43 0.31 0.25 0.19 0.18 0.27 0.40 0.34 0.33 0.41 0.45 0.43 0.37 0.37 0.34 0.38 0.40 0.44 0.40 0.38 0.41 0.43
0.01 0.02 0.02 0.03 0.04 0.05 0.05 0.04 0.03 0.03 0.03 0.03 0.04 0.04 0.03 0.02 0.02 0.01 0.01 0.00 0.00 0.00 0.00 0.00 0.00 0.00 0.00 0.00 0.00 0.00 0.00 0.00 0.00 0.00 0.00 0.00 0.01 0.03 0.06 0.10 0.13 0.15 0.17 0.18 0.16 0.13 0.12 0.12 0.16 0.24 0.25 0.25 0.28 0.29 0.30 0.33 0.37 0.43 0.54 0.57 0.52 0.48 0.41 0.37 0.30 0.23 0.21 0.18 0.21 0.23 0.34 0.38 0.49 0.48 0.43 0.33 0.33 0.31 0.36 0.42 0.39 0.36 0.39 0.41 0.42
0.02 0.03 0.01 0.02 0.01 0.02 0.03 0.03 0.05 0.05 0.04 0.02 0.01 0.01 0.01 0.01 0.02 0.03 0.02 0.01 0.00 0.00 0.00 0.00 0.00 0.00 0.00 0.00 0.00 0.00 0.00 0.00 0.00 0.00 0.00 0.00 0.00 0.01 0.03 0.06 0.09 0.11 0.13 0.15 0.19 0.20 0.19 0.16 0.15 0.20 0.27 0.25 0.20 0.23 0.30 0.35 0.39 0.44 0.52 0.63 0.57 0.38 0.31 0.30 0.26 0.24 0.20 0.16 0.19 0.20 0.27 0.30 0.36 0.39 0.37 0.32 0.33 0.35 0.33 0.33 0.34 0.38 0.40 0.40 0.38
0.00 0.00 0.01 0.01 0.00 0.00 0.00 0.00 0.00 0.00 0.00 0.00 0.00 0.00 0.00 0.00 0.00 0.00 0.00 0.00 0.00 0.00 0.00 0.00 0.00 0.00 0.00 0.00 0.00 0.00 0.00 0.00 0.00 0.00 0.00 0.00 0.00 0.00 0.01 0.02 0.05 0.08 0.11 0.14 0.16 0.19 0.21 0.21 0.19 0.19 0.21 0.26 0.26 0.20 0.23 0.33 0.43 0.50 0.57 0.56 0.48 0.37 0.30 0.26 0.25 0.21 0.20 0.20 0.20 0.20 0.20 0.27 0.35 0.37 0.36 0.33 0.35 0.32 0.33 0.33 0.35 0.33 0.36 0.39 0.37
0.00 0.00 0.00 0.01 0.00 0.00 0.00 0.00 0.00 0.00 0.00 0.00 0.00 0.00 0.00 0.00 0.00 0.00 0.00 0.00 0.00 0.00 0.00 0.00 0.00 0.00 0.00 0.00 0.00 0.00 0.00 0.00 0.00 0.00 0.00 0.00 0.00 0.00 0.00 0.00 0.01 0.03 0.07 0.10 0.13 0.17 0.19 0.21 0.22 0.22 0.22 0.23 0.27 0.28 0.24 0.30 0.38 0.44 0.45 0.45 0.45 0.43 0.35 0.30 0.32 0.29 0.26 0.24 0.24 0.24 0.23 0.26 0.33 0.38 0.39 0.36 0.36 0.34 0.37 0.40 0.40 0.41 0.40 0.39 0.40